Time,TemperatureF,DewpointF,PressureIn,WindDirection,WindDirectionDegrees,WindSpeedMPH,WindSpeedGustMPH,Humidity,HourlyPrecipIn,Conditions,Clouds,dailyrainin,SoftwareType,DateUTC
2013-02-22 00:00:00,24.2,17.1,30.18,SW,216,0.0,-999.0,74,0.00,,,0.00,Python,2013-02-22 05:00:00,
2013-02-22 00:03:00,24.3,17.2,30.18,WSW,246,0.0,-999.0,74,0.00,,,0.00,Python,2013-02-22 05:03:00,
2013-02-22 00:08:00,24.3,17.2,30.18,WSW,246,0.0,-999.0,74,0.00,,,0.00,Python,2013-02-22 05:08:00,
2013-02-22 00:14:00,24.3,17.2,30.19,WSW,241,0.0,-999.0,74,0.00,,,0.00,Python,2013-02-22 05:14:00,
2013-02-22 00:19:00,24.2,17.5,30.20,WSW,241,0.0,-999.0,75,0.00,,,0.00,Python,2013-02-22 05:19:00,
2013-02-22 00:24:00,24.2,17.1,30.19,ENE,69,2.0,-999.0,74,0.00,,,0.00,Python,2013-02-22 05:24:00,
2013-02-22 00:29:00,24.3,17.2,30.20,NE,34,0.0,-999.0,74,0.00,,,0.00,Python,2013-02-22 05:29:00,
2013-02-22 00:34:00,24.3,17.2,30.20,NNE,30,0.0,-999.0,74,0.00,,,0.00,Python,2013-02-22 05:34:00,
2013-02-22 00:40:00,24.3,17.2,30.21,ESE,104,0.0,-999.0,74,0.00,,,0.00,Python,2013-02-22 05:40:00,
2013-02-22 00:45:00,24.3,17.2,30.22,SW,225,0.0,-999.0,74,0.00,,,0.00,Python,2013-02-22 05:45:00,
2013-02-22 00:50:00,24.2,17.5,30.20,East,82,0.0,-999.0,75,0.00,,,0.00,Python,2013-02-22 05:50:00,
2013-02-22 00:55:00,24.2,17.5,30.20,NE,36,0.0,-999.0,75,0.00,,,0.00,Python,2013-02-22 05:55:00,
2013-02-22 01:00:00,24.2,17.5,30.20,NE,55,0.0,-999.0,75,0.00,,,0.00,Python,2013-02-22 06:00:00,
2013-02-22 01:05:00,24.2,17.5,30.20,NNW,335,0.0,-999.0,75,0.00,,,0.00,Python,2013-02-22 06:05:00,
2013-02-22 01:11:00,24.2,17.5,30.20,NNW,336,0.0,-999.0,75,0.00,,,0.00,Python,2013-02-22 06:11:00,
2013-02-22 01:16:00,24.2,17.5,30.21,ENE,63,0.0,-999.0,75,0.00,,,0.00,Python,2013-02-22 06:16:00,
2013-02-22 01:21:00,24.2,17.5,30.21,ENE,63,0.0,-999.0,75,0.00,,,0.00,Python,2013-02-22 06:21:00,
2013-02-22 01:26:00,24.1,17.4,30.21,ENE,63,0.0,-999.0,75,0.00,,,0.00,Python,2013-02-22 06:26:00,
2013-02-22 01:31:00,23.9,17.2,30.21,ENE,57,0.0,-999.0,75,0.00,,,0.00,Python,2013-02-22 06:31:00,
2013-02-22 01:37:00,24.0,17.6,30.21,ENE,57,0.0,-999.0,76,0.00,,,0.00,Python,2013-02-22 06:37:00,
2013-02-22 01:42:00,23.9,17.5,30.21,ENE,71,0.0,-999.0,76,0.00,,,0.00,Python,2013-02-22 06:42:00,
2013-02-22 01:47:00,23.9,17.5,30.21,NE,54,0.0,-999.0,76,0.00,,,0.00,Python,2013-02-22 06:47:00,
2013-02-22 01:52:00,23.9,17.5,30.22,NE,51,2.0,-999.0,76,0.00,,,0.00,Python,2013-02-22 06:52:00,
2013-02-22 01:57:00,23.9,17.5,30.22,NE,51,0.0,-999.0,76,0.00,,,0.00,Python,2013-02-22 06:57:00,
2013-02-22 02:02:00,23.9,17.5,30.22,ENE,68,0.0,-999.0,76,0.00,,,0.00,Python,2013-02-22 07:02:00,
2013-02-22 02:08:00,23.8,17.4,30.22,ENE,58,2.0,-999.0,76,0.00,,,0.00,Python,2013-02-22 07:08:00,
2013-02-22 02:13:00,23.9,17.5,30.22,NE,48,0.0,-999.0,76,0.00,,,0.00,Python,2013-02-22 07:13:00,
2013-02-22 02:18:00,23.8,17.7,30.22,NE,48,0.0,-999.0,77,0.00,,,0.00,Python,2013-02-22 07:18:00,
2013-02-22 02:23:00,23.8,17.7,30.23,NE,40,0.0,-999.0,77,0.00,,,0.00,Python,2013-02-22 07:23:00,
2013-02-22 02:28:00,23.8,17.7,30.23,NE,34,0.0,-999.0,77,0.00,,,0.00,Python,2013-02-22 07:28:00,
2013-02-22 02:33:00,23.8,17.7,30.23,NE,34,0.0,-999.0,77,0.00,,,0.00,Python,2013-02-22 07:33:00,
2013-02-22 02:38:00,23.8,17.7,30.23,ENE,61,0.0,-999.0,77,0.00,,,0.00,Python,2013-02-22 07:38:00,
2013-02-22 02:44:00,23.7,17.6,30.23,ENE,78,0.0,-999.0,77,0.00,,,0.00,Python,2013-02-22 07:44:00,
2013-02-22 02:49:00,23.8,17.7,30.22,ENE,74,0.0,-999.0,77,0.00,,,0.00,Python,2013-02-22 07:49:00,
2013-02-22 02:54:00,23.7,17.6,30.23,SSW,205,0.0,-999.0,77,0.00,,,0.00,Python,2013-02-22 07:54:00,
2013-02-22 02:59:00,23.8,17.7,30.23,North,355,0.0,-999.0,77,0.00,,,0.00,Python,2013-02-22 07:59:00,
2013-02-22 03:04:00,23.7,17.6,30.23,East,86,0.0,-999.0,77,0.00,,,0.00,Python,2013-02-22 08:04:00,
2013-02-22 03:10:00,23.6,17.5,30.23,ENE,67,0.0,-999.0,77,0.00,,,0.00,Python,2013-02-22 08:10:00,
2013-02-22 03:15:00,23.7,17.6,30.23,NE,45,0.0,-999.0,77,0.00,,,0.00,Python,2013-02-22 08:15:00,
2013-02-22 03:20:00,23.7,17.6,30.23,NE,48,0.0,-999.0,77,0.00,,,0.00,Python,2013-02-22 08:20:00,
2013-02-22 03:25:00,23.8,17.7,30.24,NE,54,0.0,-999.0,77,0.00,,,0.00,Python,2013-02-22 08:25:00,
2013-02-22 03:30:00,23.7,17.9,30.24,ENE,74,0.0,-999.0,78,0.00,,,0.00,Python,2013-02-22 08:30:00,
2013-02-22 03:35:00,23.6,17.8,30.24,ENE,78,0.0,-999.0,78,0.00,,,0.00,Python,2013-02-22 08:35:00,
2013-02-22 03:41:00,23.6,17.8,30.24,SSE,163,0.0,-999.0,78,0.00,,,0.00,Python,2013-02-22 08:41:00,
2013-02-22 03:46:00,23.6,17.8,30.24,NE,52,0.0,-999.0,78,0.00,,,0.00,Python,2013-02-22 08:46:00,
2013-02-22 03:51:00,23.7,17.9,30.25,NE,46,0.0,-999.0,78,0.00,,,0.00,Python,2013-02-22 08:51:00,
2013-02-22 03:56:00,23.7,17.9,30.25,NE,51,0.0,-999.0,78,0.00,,,0.00,Python,2013-02-22 08:56:00,
2013-02-22 04:01:00,23.9,18.1,30.25,NE,55,0.0,-999.0,78,0.00,,,0.00,Python,2013-02-22 09:01:00,
2013-02-22 04:07:00,23.9,18.1,30.25,ENE,61,0.0,-999.0,78,0.00,,,0.00,Python,2013-02-22 09:07:00,
2013-02-22 04:12:00,23.9,18.1,30.25,ENE,76,0.0,-999.0,78,0.00,,,0.00,Python,2013-02-22 09:12:00,
2013-02-22 04:17:00,23.9,18.1,30.24,ENE,71,0.0,-999.0,78,0.00,,,0.00,Python,2013-02-22 09:17:00,
2013-02-22 04:22:00,23.8,18.2,30.24,East,88,0.0,-999.0,79,0.00,,,0.00,Python,2013-02-22 09:22:00,
2013-02-22 04:27:00,23.8,18.2,30.24,East,87,0.0,-999.0,79,0.00,,,0.00,Python,2013-02-22 09:27:00,
2013-02-22 04:33:00,23.7,18.1,30.25,East,83,0.0,-999.0,79,0.00,,,0.00,Python,2013-02-22 09:33:00,
2013-02-22 04:38:00,23.6,18.1,30.25,East,83,0.0,-999.0,79,0.00,,,0.00,Python,2013-02-22 09:38:00,
2013-02-22 04:43:00,23.5,18.0,30.26,East,83,0.0,-999.0,79,0.00,,,0.00,Python,2013-02-22 09:43:00,
2013-02-22 04:48:00,23.5,18.2,30.26,SE,143,0.0,-999.0,80,0.00,,,0.00,Python,2013-02-22 09:48:00,
2013-02-22 04:53:00,23.5,18.2,30.26,ESE,121,0.0,-999.0,80,0.00,,,0.00,Python,2013-02-22 09:53:00,
2013-02-22 04:58:00,23.5,18.2,30.27,NNW,344,0.0,-999.0,80,0.00,,,0.00,Python,2013-02-22 09:58:00,
2013-02-22 05:04:00,23.4,18.1,30.27,NNW,344,0.0,-999.0,80,0.00,,,0.00,Python,2013-02-22 10:04:00,
2013-02-22 05:09:00,23.3,18.0,30.28,North,5,0.0,-999.0,80,0.00,,,0.00,Python,2013-02-22 10:09:00,
2013-02-22 05:14:00,23.4,18.1,30.28,North,5,0.0,-999.0,80,0.00,,,0.00,Python,2013-02-22 10:14:00,
2013-02-22 05:19:00,23.3,18.3,30.29,North,5,0.0,-999.0,81,0.00,,,0.00,Python,2013-02-22 10:19:00,
2013-02-22 05:24:00,23.3,18.3,30.29,North,5,0.0,-999.0,81,0.00,,,0.00,Python,2013-02-22 10:24:00,
2013-02-22 05:30:00,23.2,18.2,30.29,North,5,0.0,-999.0,81,0.00,,,0.00,Python,2013-02-22 10:30:00,
2013-02-22 05:35:00,23.1,18.1,30.29,North,5,0.0,-999.0,81,0.00,,,0.00,Python,2013-02-22 10:35:00,
2013-02-22 05:40:00,23.0,18.0,30.30,North,5,0.0,-999.0,81,0.00,,,0.00,Python,2013-02-22 10:40:00,
2013-02-22 05:45:00,22.9,17.9,30.30,North,355,0.0,-999.0,81,0.00,,,0.00,Python,2013-02-22 10:45:00,
2013-02-22 05:50:00,22.8,18.1,30.30,North,355,0.0,-999.0,82,0.00,,,0.00,Python,2013-02-22 10:50:00,
2013-02-22 05:55:00,22.6,17.6,30.30,North,355,0.0,-999.0,81,0.00,,,0.00,Python,2013-02-22 10:55:00,
2013-02-22 06:01:00,22.3,17.6,30.31,North,355,0.0,-999.0,82,0.00,,,0.00,Python,2013-02-22 11:01:00,
2013-02-22 06:06:00,22.1,17.4,30.31,North,355,0.0,-999.0,82,0.00,,,0.00,Python,2013-02-22 11:06:00,
2013-02-22 06:11:00,21.8,17.4,30.32,North,355,0.0,-999.0,83,0.00,,,0.00,Python,2013-02-22 11:11:00,
2013-02-22 06:16:00,21.5,17.1,30.32,North,355,0.0,-999.0,83,0.00,,,0.00,Python,2013-02-22 11:16:00,
2013-02-22 06:21:00,21.3,17.2,30.32,North,355,0.0,-999.0,84,0.00,,,0.00,Python,2013-02-22 11:21:00,
2013-02-22 06:27:00,21.2,17.1,30.32,North,355,0.0,-999.0,84,0.00,,,0.00,Python,2013-02-22 11:27:00,
2013-02-22 06:32:00,21.1,17.0,30.33,North,355,0.0,-999.0,84,0.00,,,0.00,Python,2013-02-22 11:32:00,
2013-02-22 06:37:00,21.1,17.3,30.33,North,355,0.0,-999.0,85,0.00,,,0.00,Python,2013-02-22 11:37:00,
2013-02-22 06:42:00,21.1,17.3,30.33,North,355,0.0,-999.0,85,0.00,,,0.00,Python,2013-02-22 11:42:00,
2013-02-22 06:47:00,21.1,17.3,30.34,North,355,0.0,-999.0,85,0.00,,,0.00,Python,2013-02-22 11:47:00,
2013-02-22 06:52:00,21.2,17.4,30.34,North,355,0.0,-999.0,85,0.00,,,0.00,Python,2013-02-22 11:52:00,
2013-02-22 06:58:00,21.4,17.6,30.35,North,355,0.0,-999.0,85,0.00,,,0.00,Python,2013-02-22 11:58:00,
2013-02-22 07:03:00,21.6,17.8,30.35,North,5,0.0,-999.0,85,0.00,,,0.00,Python,2013-02-22 12:03:00,
2013-02-22 07:08:00,21.8,18.0,30.35,North,5,0.0,-999.0,85,0.00,,,0.00,Python,2013-02-22 12:08:00,
2013-02-22 07:13:00,22.1,18.3,30.35,North,5,0.0,-999.0,85,0.00,,,0.00,Python,2013-02-22 12:13:00,
2013-02-22 07:18:00,22.4,18.3,30.35,North,9,0.0,-999.0,84,0.00,,,0.00,Python,2013-02-22 12:18:00,
2013-02-22 07:24:00,22.8,18.7,30.35,North,9,0.0,-999.0,84,0.00,,,0.00,Python,2013-02-22 12:24:00,
2013-02-22 07:29:00,23.3,18.9,30.35,North,9,0.0,-999.0,83,0.00,,,0.00,Python,2013-02-22 12:29:00,
2013-02-22 07:34:00,23.8,19.1,30.35,North,9,0.0,-999.0,82,0.00,,,0.00,Python,2013-02-22 12:34:00,
2013-02-22 07:39:00,24.6,19.3,30.35,ENE,73,0.0,-999.0,80,0.00,,,0.00,Python,2013-02-22 12:39:00,
2013-02-22 07:44:00,25.2,19.6,30.35,NE,53,0.0,-999.0,79,0.00,,,0.00,Python,2013-02-22 12:44:00,
2013-02-22 07:50:00,25.7,19.8,30.35,NE,51,0.0,-999.0,78,0.00,,,0.00,Python,2013-02-22 12:50:00,
2013-02-22 07:55:00,26.2,20.0,30.35,ENE,74,0.0,-999.0,77,0.00,,,0.00,Python,2013-02-22 12:55:00,
2013-02-22 08:00:00,26.6,20.1,30.36,NE,53,0.0,-999.0,76,0.00,,,0.00,Python,2013-02-22 13:00:00,
2013-02-22 08:05:00,27.0,20.2,30.36,ENE,67,0.0,-999.0,75,0.00,,,0.00,Python,2013-02-22 13:05:00,
2013-02-22 08:10:00,27.3,20.1,30.36,ENE,74,1.0,-999.0,74,0.00,,,0.00,Python,2013-02-22 13:10:00,
2013-02-22 08:15:00,27.7,20.5,30.36,ENE,67,0.0,-999.0,74,0.00,,,0.00,Python,2013-02-22 13:15:00,
2013-02-22 08:21:00,28.1,20.6,30.35,NE,54,0.0,-999.0,73,0.00,,,0.00,Python,2013-02-22 13:21:00,
2013-02-22 08:26:00,28.5,20.7,30.35,East,80,0.0,-999.0,72,0.00,,,0.00,Python,2013-02-22 13:26:00,
2013-02-22 08:31:00,28.9,20.7,30.35,ENE,78,2.0,-999.0,71,0.00,,,0.00,Python,2013-02-22 13:31:00,
2013-02-22 08:36:00,29.4,21.2,30.35,NE,51,3.0,-999.0,71,0.00,,,0.00,Python,2013-02-22 13:36:00,
2013-02-22 08:41:00,29.8,20.9,30.35,NE,41,0.0,-999.0,69,0.00,,,0.00,Python,2013-02-22 13:41:00,
2013-02-22 08:47:00,30.2,21.3,30.35,NE,50,3.0,-999.0,69,0.00,,,0.00,Python,2013-02-22 13:47:00,
2013-02-22 08:52:00,30.7,21.5,30.35,SE,125,0.0,-999.0,68,0.00,,,0.00,Python,2013-02-22 13:52:00,
2013-02-22 08:57:00,31.2,21.6,30.35,NE,47,1.0,-999.0,67,0.00,,,0.00,Python,2013-02-22 13:57:00,
2013-02-22 09:02:00,31.6,21.6,30.35,NE,45,1.0,-999.0,66,0.00,,,0.00,Python,2013-02-22 14:02:00,
2013-02-22 09:07:00,31.9,21.5,30.35,ENE,58,3.0,-999.0,65,0.00,,,0.00,Python,2013-02-22 14:07:00,
2013-02-22 09:12:00,32.0,21.3,30.35,NE,50,3.0,-999.0,64,0.00,,,0.00,Python,2013-02-22 14:12:00,
2013-02-22 09:18:00,32.2,21.4,30.36,NE,49,3.0,-999.0,64,0.00,,,0.00,Python,2013-02-22 14:18:00,
2013-02-22 09:23:00,32.5,21.7,30.36,ENE,68,1.0,-999.0,64,0.00,,,0.00,Python,2013-02-22 14:23:00,
2013-02-22 09:28:00,32.8,22.0,30.36,ENE,66,0.0,-999.0,64,0.00,,,0.00,Python,2013-02-22 14:28:00,
2013-02-22 09:33:00,33.0,21.8,30.36,NE,51,0.0,-999.0,63,0.00,,,0.00,Python,2013-02-22 14:33:00,
2013-02-22 09:38:00,33.2,21.6,30.36,NE,34,1.0,-999.0,62,0.00,,,0.00,Python,2013-02-22 14:38:00,
2013-02-22 09:44:00,33.4,22.2,30.35,SW,218,1.0,-999.0,63,0.00,,,0.00,Python,2013-02-22 14:44:00,
2013-02-22 09:49:00,33.5,21.9,30.35,NE,47,0.0,-999.0,62,0.00,,,0.00,Python,2013-02-22 14:49:00,
2013-02-22 09:54:00,33.5,22.3,30.35,ENE,57,0.0,-999.0,63,0.00,,,0.00,Python,2013-02-22 14:54:00,
2013-02-22 09:59:00,33.8,22.2,30.35,NE,53,4.0,-999.0,62,0.00,,,0.00,Python,2013-02-22 14:59:00,
2013-02-22 10:04:00,34.1,22.5,30.35,East,88,4.0,-999.0,62,0.00,,,0.00,Python,2013-02-22 15:04:00,
2013-02-22 10:09:00,34.5,22.5,30.35,SE,143,1.0,-999.0,61,0.00,,,0.00,Python,2013-02-22 15:09:00,
2013-02-22 10:15:00,34.8,22.4,30.35,North,5,2.0,-999.0,60,0.00,,,0.00,Python,2013-02-22 15:15:00,
2013-02-22 10:20:00,34.7,22.3,30.35,ENE,60,2.0,-999.0,60,0.00,,,0.00,Python,2013-02-22 15:20:00,
2013-02-22 10:25:00,34.7,22.3,30.35,NE,48,3.0,-999.0,60,0.00,,,0.00,Python,2013-02-22 15:25:00,
2013-02-22 10:30:00,34.6,21.8,30.35,SW,232,5.0,-999.0,59,0.00,,,0.00,Python,2013-02-22 15:30:00,
2013-02-22 10:35:00,34.7,22.7,30.35,ENE,59,3.0,-999.0,61,0.00,,,0.00,Python,2013-02-22 15:35:00,
2013-02-22 10:41:00,34.8,22.8,30.35,North,360,0.0,-999.0,61,0.00,,,0.00,Python,2013-02-22 15:41:00,
2013-02-22 10:46:00,35.0,22.2,30.34,ENE,66,0.0,-999.0,59,0.00,,,0.00,Python,2013-02-22 15:46:00,
2013-02-22 10:51:00,35.2,22.8,30.34,NE,50,2.0,-999.0,60,0.00,,,0.00,Python,2013-02-22 15:51:00,
2013-02-22 10:56:00,35.6,22.3,30.34,SE,136,1.0,-999.0,58,0.00,,,0.00,Python,2013-02-22 15:56:00,
2013-02-22 11:01:00,36.0,22.7,30.34,NE,51,0.0,-999.0,58,0.00,,,0.00,Python,2013-02-22 16:01:00,
2013-02-22 11:06:00,36.1,21.9,30.34,ENE,65,0.0,-999.0,56,0.00,,,0.00,Python,2013-02-22 16:06:00,
2013-02-22 11:12:00,35.7,21.6,30.34,ESE,123,1.0,-999.0,56,0.00,,,0.00,Python,2013-02-22 16:12:00,
2013-02-22 11:17:00,35.8,21.6,30.34,ENE,57,2.0,-999.0,56,0.00,,,0.00,Python,2013-02-22 16:17:00,
2013-02-22 11:22:00,35.9,22.2,30.33,SW,223,0.0,-999.0,57,0.00,,,0.00,Python,2013-02-22 16:22:00,
2013-02-22 11:27:00,36.2,22.5,30.33,NE,53,0.0,-999.0,57,0.00,,,0.00,Python,2013-02-22 16:27:00,
2013-02-22 11:32:00,36.5,22.3,30.33,NE,45,2.0,-999.0,56,0.00,,,0.00,Python,2013-02-22 16:32:00,
2013-02-22 11:37:00,36.6,22.8,30.33,NE,38,0.0,-999.0,57,0.00,,,0.00,Python,2013-02-22 16:37:00,
2013-02-22 11:43:00,36.6,22.0,30.33,NNE,26,1.0,-999.0,55,0.00,,,0.00,Python,2013-02-22 16:43:00,
2013-02-22 11:48:00,36.3,21.7,30.33,ENE,68,0.0,-999.0,55,0.00,,,0.00,Python,2013-02-22 16:48:00,
2013-02-22 11:53:00,36.2,21.6,30.33,NE,47,1.0,-999.0,55,0.00,,,0.00,Python,2013-02-22 16:53:00,
2013-02-22 11:58:00,36.2,21.6,30.33,NE,47,1.0,-999.0,55,0.00,,,0.00,Python,2013-02-22 16:58:00,
2013-02-22 12:03:00,36.3,22.5,30.33,ENE,58,1.0,-999.0,57,0.00,,,0.00,Python,2013-02-22 17:03:00,
2013-02-22 12:09:00,36.5,21.4,30.33,East,82,0.0,-999.0,54,0.00,,,0.00,Python,2013-02-22 17:09:00,
2013-02-22 12:14:00,36.7,21.6,30.33,SW,236,0.0,-999.0,54,0.00,,,0.00,Python,2013-02-22 17:14:00,
2013-02-22 12:19:00,37.0,22.8,30.33,SW,215,5.0,-999.0,56,0.00,,,0.00,Python,2013-02-22 17:19:00,
2013-02-22 12:24:00,36.9,21.8,30.33,East,84,1.0,-999.0,54,0.00,,,0.00,Python,2013-02-22 17:24:00,
2013-02-22 12:29:00,36.9,20.9,30.33,SE,128,0.0,-999.0,52,0.00,,,0.00,Python,2013-02-22 17:29:00,
2013-02-22 12:34:00,36.9,21.3,30.33,NE,49,0.0,-999.0,53,0.00,,,0.00,Python,2013-02-22 17:34:00,
2013-02-22 12:40:00,37.2,21.6,30.33,NE,49,0.0,-999.0,53,0.00,,,0.00,Python,2013-02-22 17:40:00,
2013-02-22 12:45:00,37.1,21.1,30.33,ENE,61,2.0,-999.0,52,0.00,,,0.00,Python,2013-02-22 17:45:00,
2013-02-22 12:50:00,37.3,20.8,30.33,ENE,62,0.0,-999.0,51,0.00,,,0.00,Python,2013-02-22 17:50:00,
2013-02-22 12:55:00,37.4,20.9,30.32,NE,41,3.0,-999.0,51,0.00,,,0.00,Python,2013-02-22 17:55:00,
2013-02-22 13:00:00,37.4,21.3,30.33,NE,35,1.0,-999.0,52,0.00,,,0.00,Python,2013-02-22 18:00:00,
2013-02-22 13:06:00,37.5,21.4,30.33,NW,309,0.0,-999.0,52,0.00,,,0.00,Python,2013-02-22 18:06:00,
2013-02-22 13:11:00,37.8,21.7,30.33,ENE,59,3.0,-999.0,52,0.00,,,0.00,Python,2013-02-22 18:11:00,
2013-02-22 13:16:00,38.2,21.6,30.33,NE,35,2.0,-999.0,51,0.00,,,0.00,Python,2013-02-22 18:16:00,
2013-02-22 13:21:00,38.3,21.7,30.33,ENE,61,0.0,-999.0,51,0.00,,,0.00,Python,2013-02-22 18:21:00,
2013-02-22 13:26:00,38.2,20.6,30.33,WNW,289,1.0,-999.0,49,0.00,,,0.00,Python,2013-02-22 18:26:00,
2013-02-22 13:31:00,38.0,20.9,30.33,SSE,154,0.0,-999.0,50,0.00,,,0.00,Python,2013-02-22 18:31:00,
2013-02-22 13:37:00,38.1,21.0,30.32,ENE,58,0.0,-999.0,50,0.00,,,0.00,Python,2013-02-22 18:37:00,
2013-02-22 13:42:00,38.2,21.6,30.32,ENE,58,1.0,-999.0,51,0.00,,,0.00,Python,2013-02-22 18:42:00,
2013-02-22 13:47:00,38.2,21.6,30.32,ENE,63,0.0,-999.0,51,0.00,,,0.00,Python,2013-02-22 18:47:00,
2013-02-22 13:52:00,38.2,21.1,30.32,East,86,0.0,-999.0,50,0.00,,,0.00,Python,2013-02-22 18:52:00,
2013-02-22 13:57:00,38.3,21.7,30.32,NNE,18,2.0,-999.0,51,0.00,,,0.00,Python,2013-02-22 18:57:00,
2013-02-22 14:03:00,38.2,21.6,30.31,NE,53,0.0,-999.0,51,0.00,,,0.00,Python,2013-02-22 19:03:00,
2013-02-22 14:08:00,38.4,21.3,30.31,ENE,65,0.0,-999.0,50,0.00,,,0.00,Python,2013-02-22 19:08:00,
2013-02-22 14:13:00,38.4,21.8,30.31,South,184,2.0,-999.0,51,0.00,,,0.00,Python,2013-02-22 19:13:00,
2013-02-22 14:18:00,38.4,21.8,30.31,SSW,200,0.0,-999.0,51,0.00,,,0.00,Python,2013-02-22 19:18:00,
2013-02-22 14:23:00,38.5,21.4,30.31,NE,51,2.0,-999.0,50,0.00,,,0.00,Python,2013-02-22 19:23:00,
2013-02-22 14:28:00,38.7,21.1,30.31,NNE,31,0.0,-999.0,49,0.00,,,0.00,Python,2013-02-22 19:28:00,
2013-02-22 14:34:00,38.9,20.8,30.31,NNE,23,0.0,-999.0,48,0.00,,,0.00,Python,2013-02-22 19:34:00,
2013-02-22 14:39:00,38.9,21.8,30.31,WSW,252,0.0,-999.0,50,0.00,,,0.00,Python,2013-02-22 19:39:00,
2013-02-22 14:44:00,38.7,21.6,30.31,SW,227,0.0,-999.0,50,0.00,,,0.00,Python,2013-02-22 19:44:00,
2013-02-22 14:49:00,38.8,22.6,30.31,SSW,204,0.0,-999.0,52,0.00,,,0.00,Python,2013-02-22 19:49:00,
2013-02-22 14:54:00,38.7,21.6,30.30,SSW,210,0.0,-999.0,50,0.00,,,0.00,Python,2013-02-22 19:54:00,
2013-02-22 15:00:00,38.6,22.0,30.31,North,5,0.0,-999.0,51,0.00,,,0.00,Python,2013-02-22 20:00:00,
2013-02-22 15:05:00,38.5,21.9,30.31,SSW,203,0.0,-999.0,51,0.00,,,0.00,Python,2013-02-22 20:05:00,
2013-02-22 15:10:00,38.6,21.5,30.31,NE,46,0.0,-999.0,50,0.00,,,0.00,Python,2013-02-22 20:10:00,
2013-02-22 15:15:00,38.8,21.7,30.31,ENE,65,0.0,-999.0,50,0.00,,,0.00,Python,2013-02-22 20:15:00,
2013-02-22 15:20:00,38.7,21.1,30.32,NE,44,1.0,-999.0,49,0.00,,,0.00,Python,2013-02-22 20:20:00,
2013-02-22 15:25:00,38.2,20.6,30.32,NE,38,1.0,-999.0,49,0.00,,,0.00,Python,2013-02-22 20:25:00,
2013-02-22 15:31:00,37.8,20.8,30.32,NE,55,0.0,-999.0,50,0.00,,,0.00,Python,2013-02-22 20:31:00,
2013-02-22 15:36:00,37.6,21.1,30.32,NE,55,0.0,-999.0,51,0.00,,,0.00,Python,2013-02-22 20:36:00,
2013-02-22 15:41:00,37.7,21.6,30.32,East,101,0.0,-999.0,52,0.00,,,0.00,Python,2013-02-22 20:41:00,
2013-02-22 15:46:00,37.7,21.1,30.32,ENE,70,2.0,-999.0,51,0.00,,,0.00,Python,2013-02-22 20:46:00,
2013-02-22 15:51:00,37.7,22.1,30.32,ENE,68,0.0,-999.0,53,0.00,,,0.00,Python,2013-02-22 20:51:00,
2013-02-22 15:57:00,37.5,22.4,30.31,NE,46,0.0,-999.0,54,0.00,,,0.00,Python,2013-02-22 20:57:00,
2013-02-22 16:02:00,37.2,23.4,30.31,NNE,26,0.0,-999.0,57,0.00,,,0.00,Python,2013-02-22 21:02:00,
2013-02-22 16:07:00,37.1,23.7,30.31,NNE,26,0.0,-999.0,58,0.00,,,0.00,Python,2013-02-22 21:07:00,
2013-02-22 16:12:00,36.8,23.4,30.32,SSW,211,0.0,-999.0,58,0.00,,,0.00,Python,2013-02-22 21:12:00,
2013-02-22 16:17:00,36.7,23.8,30.31,SSW,211,0.0,-999.0,59,0.00,,,0.00,Python,2013-02-22 21:17:00,
2013-02-22 16:23:00,36.5,23.2,30.30,NE,49,0.0,-999.0,58,0.00,,,0.00,Python,2013-02-22 21:23:00,
2013-02-22 16:28:00,36.5,23.6,30.30,SE,124,0.0,-999.0,59,0.00,,,0.00,Python,2013-02-22 21:28:00,
2013-02-22 16:33:00,36.4,23.9,30.30,SW,232,0.0,-999.0,60,0.00,,,0.00,Python,2013-02-22 21:33:00,
2013-02-22 16:38:00,36.3,24.2,30.30,SSW,209,0.0,-999.0,61,0.00,,,0.00,Python,2013-02-22 21:38:00,
2013-02-22 16:43:00,36.2,24.5,30.30,SSW,205,0.0,-999.0,62,0.00,,,0.00,Python,2013-02-22 21:43:00,
2013-02-22 16:48:00,36.0,24.3,30.30,NE,47,1.0,-999.0,62,0.00,,,0.00,Python,2013-02-22 21:48:00,
2013-02-22 16:54:00,35.7,25.2,30.30,SSE,167,0.0,-999.0,65,0.00,,,0.00,Python,2013-02-22 21:54:00,
2013-02-22 16:59:00,35.5,25.0,30.31,SSW,205,0.0,-999.0,65,0.00,,,0.00,Python,2013-02-22 21:59:00,
2013-02-22 17:04:00,35.3,24.4,30.30,SW,214,0.0,-999.0,64,0.00,,,0.00,Python,2013-02-22 22:04:00,
2013-02-22 17:09:00,35.1,24.6,30.30,WSW,240,1.0,-999.0,65,0.00,,,0.00,Python,2013-02-22 22:09:00,
2013-02-22 17:14:00,34.9,25.1,30.30,West,263,1.0,-999.0,67,0.00,,,0.00,Python,2013-02-22 22:14:00,
2013-02-22 17:20:00,34.7,24.9,30.30,SW,230,0.0,-999.0,67,0.00,,,0.00,Python,2013-02-22 22:20:00,
2013-02-22 17:25:00,34.5,24.7,30.31,SW,221,0.0,-999.0,67,0.00,,,0.00,Python,2013-02-22 22:25:00,
2013-02-22 17:30:00,34.4,24.3,30.31,SW,217,0.0,-999.0,66,0.00,,,0.00,Python,2013-02-22 22:30:00,
2013-02-22 17:35:00,34.3,24.5,30.32,SW,217,0.0,-999.0,67,0.00,,,0.00,Python,2013-02-22 22:35:00,
2013-02-22 17:40:00,34.1,24.4,30.32,SW,217,0.0,-999.0,67,0.00,,,0.00,Python,2013-02-22 22:40:00,
2013-02-22 17:45:00,33.9,23.8,30.32,SW,217,0.0,-999.0,66,0.00,,,0.00,Python,2013-02-22 22:45:00,
2013-02-22 17:50:00,33.8,23.7,30.32,SW,217,0.0,-999.0,66,0.00,,,0.00,Python,2013-02-22 22:50:00,
2013-02-22 17:56:00,33.6,23.5,30.32,SW,217,0.0,-999.0,66,0.00,,,0.00,Python,2013-02-22 22:56:00,
2013-02-22 18:01:00,33.4,24.0,30.32,SW,217,0.0,-999.0,68,0.00,,,0.00,Python,2013-02-22 23:01:00,
2013-02-22 18:06:00,33.3,24.3,30.32,SW,217,0.0,-999.0,69,0.00,,,0.00,Python,2013-02-22 23:06:00,
2013-02-22 18:11:00,33.1,24.1,30.31,SW,217,0.0,-999.0,69,0.00,,,0.00,Python,2013-02-22 23:11:00,
2013-02-22 18:16:00,33.0,24.3,30.32,SW,217,0.0,-999.0,70,0.00,,,0.00,Python,2013-02-22 23:16:00,
2013-02-22 18:22:00,32.8,23.8,30.32,SW,217,0.0,-999.0,69,0.00,,,0.00,Python,2013-02-22 23:22:00,
2013-02-22 18:27:00,32.6,24.0,30.32,SW,217,0.0,-999.0,70,0.00,,,0.00,Python,2013-02-22 23:27:00,
2013-02-22 18:32:00,32.4,23.8,30.33,SW,217,0.0,-999.0,70,0.00,,,0.00,Python,2013-02-22 23:32:00,
2013-02-22 18:37:00,32.3,23.7,30.33,SW,217,0.0,-999.0,70,0.00,,,0.00,Python,2013-02-22 23:37:00,
2013-02-22 18:42:00,32.1,23.5,30.33,SW,217,0.0,-999.0,70,0.00,,,0.00,Python,2013-02-22 23:42:00,
2013-02-22 18:48:00,31.9,24.0,30.32,SW,217,0.0,-999.0,72,0.00,,,0.00,Python,2013-02-22 23:48:00,
2013-02-22 18:53:00,31.7,24.1,30.33,SW,217,0.0,-999.0,73,0.00,,,0.00,Python,2013-02-22 23:53:00,
2013-02-22 18:58:00,31.6,24.0,30.33,SW,217,0.0,-999.0,73,0.00,,,0.00,Python,2013-02-22 23:58:00,
2013-02-22 19:03:00,31.5,23.9,30.33,SW,217,0.0,-999.0,73,0.00,,,0.00,Python,2013-02-23 00:03:00,
2013-02-22 19:08:00,31.3,24.0,30.34,SW,217,0.0,-999.0,74,0.00,,,0.00,Python,2013-02-23 00:08:00,
2013-02-22 19:13:00,31.1,24.1,30.34,SW,217,0.0,-999.0,75,0.00,,,0.00,Python,2013-02-23 00:13:00,
2013-02-22 19:19:00,31.0,24.0,30.33,SW,217,0.0,-999.0,75,0.00,,,0.00,Python,2013-02-23 00:19:00,
2013-02-22 19:24:00,30.9,24.6,30.32,SW,217,0.0,-999.0,77,0.00,,,0.00,Python,2013-02-23 00:24:00,
2013-02-22 19:29:00,30.8,24.2,30.32,SW,217,0.0,-999.0,76,0.00,,,0.00,Python,2013-02-23 00:29:00,
2013-02-22 19:34:00,30.7,24.1,30.32,SW,217,0.0,-999.0,76,0.00,,,0.00,Python,2013-02-23 00:34:00,
2013-02-22 19:39:00,30.6,24.0,30.32,SW,217,0.0,-999.0,76,0.00,,,0.00,Python,2013-02-23 00:39:00,
2013-02-22 19:45:00,30.6,24.0,30.32,SW,217,0.0,-999.0,76,0.00,,,0.00,Python,2013-02-23 00:45:00,
2013-02-22 19:50:00,30.6,24.0,30.32,SW,217,0.0,-999.0,76,0.00,,,0.00,Python,2013-02-23 00:50:00,
2013-02-22 19:55:00,30.7,24.4,30.33,SW,217,0.0,-999.0,77,0.00,,,0.00,Python,2013-02-23 00:55:00,
2013-02-22 20:00:00,30.8,24.5,30.34,SW,217,0.0,-999.0,77,0.00,,,0.00,Python,2013-02-23 01:00:00,
2013-02-22 20:05:00,30.8,24.5,30.34,SW,217,0.0,-999.0,77,0.00,,,0.00,Python,2013-02-23 01:05:00,
2013-02-22 20:11:00,30.8,24.8,30.34,SW,217,0.0,-999.0,78,0.00,,,0.00,Python,2013-02-23 01:11:00,
2013-02-22 20:16:00,30.8,24.8,30.33,SW,217,0.0,-999.0,78,0.00,,,0.00,Python,2013-02-23 01:16:00,
2013-02-22 20:21:00,30.8,24.8,30.33,SW,217,0.0,-999.0,78,0.00,,,0.00,Python,2013-02-23 01:21:00,
2013-02-22 20:26:00,30.7,24.7,30.33,SW,217,0.0,-999.0,78,0.00,,,0.00,Python,2013-02-23 01:26:00,
2013-02-22 20:31:00,30.6,24.6,30.32,SW,217,0.0,-999.0,78,0.00,,,0.00,Python,2013-02-23 01:31:00,
2013-02-22 20:37:00,30.7,24.7,30.32,SW,217,0.0,-999.0,78,0.00,,,0.00,Python,2013-02-23 01:37:00,
2013-02-22 20:42:00,30.7,24.7,30.32,SW,217,0.0,-999.0,78,0.00,,,0.00,Python,2013-02-23 01:42:00,
2013-02-22 20:47:00,30.7,24.4,30.32,SW,217,0.0,-999.0,77,0.00,,,0.00,Python,2013-02-23 01:47:00,
2013-02-22 20:52:00,30.6,24.3,30.32,SW,217,0.0,-999.0,77,0.00,,,0.00,Python,2013-02-23 01:52:00,
2013-02-22 20:57:00,30.6,24.6,30.32,SW,217,0.0,-999.0,78,0.00,,,0.00,Python,2013-02-23 01:57:00,
2013-02-22 21:03:00,30.6,24.6,30.32,SW,217,0.0,-999.0,78,0.00,,,0.00,Python,2013-02-23 02:03:00,
2013-02-22 21:08:00,30.6,24.6,30.32,SW,217,0.0,-999.0,78,0.00,,,0.00,Python,2013-02-23 02:08:00,
2013-02-22 21:13:00,30.6,24.6,30.32,SW,217,0.0,-999.0,78,0.00,,,0.00,Python,2013-02-23 02:13:00,
2013-02-22 21:18:00,30.6,24.6,30.32,SW,217,0.0,-999.0,78,0.00,,,0.00,Python,2013-02-23 02:18:00,
2013-02-22 21:23:00,30.7,24.7,30.32,SW,217,0.0,-999.0,78,0.00,,,0.00,Python,2013-02-23 02:23:00,
2013-02-22 21:28:00,30.7,25.0,30.32,SW,217,0.0,-999.0,79,0.00,,,0.00,Python,2013-02-23 02:28:00,
2013-02-22 21:34:00,30.7,24.7,30.32,SW,217,0.0,-999.0,78,0.00,,,0.00,Python,2013-02-23 02:34:00,
2013-02-22 21:39:00,30.7,24.7,30.32,SW,217,0.0,-999.0,78,0.00,,,0.00,Python,2013-02-23 02:39:00,
2013-02-22 21:44:00,30.7,25.0,30.33,SW,217,0.0,-999.0,79,0.00,,,0.00,Python,2013-02-23 02:44:00,
2013-02-22 21:49:00,30.7,24.7,30.32,SW,217,0.0,-999.0,78,0.00,,,0.00,Python,2013-02-23 02:49:00,
2013-02-22 21:54:00,30.7,24.7,30.32,SW,217,0.0,-999.0,78,0.00,,,0.00,Python,2013-02-23 02:54:00,
2013-02-22 22:00:00,30.8,24.8,30.33,SW,217,0.0,-999.0,78,0.00,,,0.00,Python,2013-02-23 03:00:00,
2013-02-22 22:05:00,30.8,25.1,30.33,SW,217,0.0,-999.0,79,0.00,,,0.00,Python,2013-02-23 03:05:00,
2013-02-22 22:10:00,30.7,25.0,30.33,SW,217,0.0,-999.0,79,0.00,,,0.00,Python,2013-02-23 03:10:00,
2013-02-22 22:15:00,30.7,25.0,30.33,SW,217,0.0,-999.0,79,0.00,,,0.00,Python,2013-02-23 03:15:00,
2013-02-22 22:20:00,30.7,25.0,30.33,SW,217,0.0,-999.0,79,0.00,,,0.00,Python,2013-02-23 03:20:00,
2013-02-22 22:26:00,30.7,24.7,30.32,SW,217,0.0,-999.0,78,0.00,,,0.00,Python,2013-02-23 03:26:00,
2013-02-22 22:31:00,30.6,24.6,30.32,SW,217,0.0,-999.0,78,0.00,,,0.00,Python,2013-02-23 03:31:00,
2013-02-22 22:36:00,30.6,24.6,30.32,SW,217,0.0,-999.0,78,0.00,,,0.00,Python,2013-02-23 03:36:00,
2013-02-22 22:41:00,30.6,24.9,30.32,SW,217,0.0,-999.0,79,0.00,,,0.00,Python,2013-02-23 03:41:00,
2013-02-22 22:46:00,30.6,24.6,30.32,SW,217,0.0,-999.0,78,0.00,,,0.00,Python,2013-02-23 03:46:00,
2013-02-22 22:52:00,30.6,24.9,30.32,SW,217,0.0,-999.0,79,0.00,,,0.00,Python,2013-02-23 03:52:00,
2013-02-22 22:57:00,30.5,25.4,30.32,SW,217,0.0,-999.0,81,0.00,,,0.00,Python,2013-02-23 03:57:00,
2013-02-22 23:02:00,30.5,25.4,30.32,SW,217,0.0,-999.0,81,0.00,,,0.00,Python,2013-02-23 04:02:00,
2013-02-22 23:07:00,30.4,25.3,30.32,SW,217,0.0,-999.0,81,0.00,,,0.00,Python,2013-02-23 04:07:00,
2013-02-22 23:12:00,30.3,25.5,30.32,SW,217,0.0,-999.0,82,0.00,,,0.00,Python,2013-02-23 04:12:00,
2013-02-22 23:17:00,30.2,25.4,30.32,SW,217,0.0,-999.0,82,0.00,,,0.00,Python,2013-02-23 04:17:00,
2013-02-22 23:23:00,30.1,25.0,30.32,SW,217,0.0,-999.0,81,0.00,,,0.00,Python,2013-02-23 04:23:00,
2013-02-22 23:28:00,29.9,24.8,30.31,SW,217,0.0,-999.0,81,0.00,,,0.00,Python,2013-02-23 04:28:00,
2013-02-22 23:33:00,29.6,24.2,30.31,SW,217,0.0,-999.0,80,0.00,,,0.00,Python,2013-02-23 04:33:00,
2013-02-22 23:38:00,29.4,24.0,30.31,SW,217,0.0,-999.0,80,0.00,,,0.00,Python,2013-02-23 04:38:00,
2013-02-22 23:43:00,29.2,24.1,30.31,SW,217,0.0,-999.0,81,0.00,,,0.00,Python,2013-02-23 04:43:00,
2013-02-22 23:49:00,29.0,23.9,30.31,SW,217,0.0,-999.0,81,0.00,,,0.00,Python,2013-02-23 04:49:00,
2013-02-22 23:54:00,28.9,23.8,30.31,SW,217,0.0,-999.0,81,0.00,,,0.00,Python,2013-02-23 04:54:00,
2013-02-22 23:59:00,28.8,23.7,30.30,SW,217,0.0,-999.0,81,0.00,,,0.00,Python,2013-02-23 04:59:00,